STARLINK-1964 (47565 NORAD) Tracking and Keplerian Element Data

This shows tracking and keplerian element data for the satellite.

Feedback or suggestion? Click here.




ElementValue
Catalog47565
NameSTARLINK-1964
Epoch Orbit1175
Epoch Day106.25002315
Epoch Year2021
RAAN136.3456
Inclination53.0516
Eccentricity0.0004142
Argument of Perigee0.964
Mean Anonmoly159.7528
Mean Motion15.62768814
Decay Rate-4.894E-05
L11 47565U 21009T 21106.25002315 -.00004894 00000-0 -47554-4 0 9993
L22 47565 53.0516 136.3456 0004142 0.9640 159.7528 15.62768814 11756

Live tracking and technical data element details for STARLINK-1964 (NORAD 47565). STARLINK-1964 can be tracked NOW for your location showing map with azimuth and elevation plus other details from your city location.

Track the satellite on the map from your city or location and see movement details for azimuth, elevation, latitude, longitude, range, height, and movement on the map or in text.







IsCatalogInMostPopularTable: catalog: 47565, numindb: 33
Update: records affected: 1



GetName: 47565 STARLINK-1964

Hit Count: updated at: Fri, 16 Apr 2021 11:12:12 GMT